Regional Weather Roundup
Issued by NWS

Home | Current Version | Previous Version | Graphics & Text | Print | Product List | Glossary On
Versions: 1 2 3 4 5 6 7 8 9 10 11 12 13 14 15 16 17 18 19 20 21 22 23 24 25 26 27 28 29 30 31 32 33 34 35 36 37 38 39 40 41 42 43 44 45 46 47 48 49 50
989
ASUS43 KMKX 231600
RWRWI

WISCONSIN REGIONAL WEATHER ROUNDUP
NATIONAL WEATHER SERVICE MILWAUKEE/SULLIVAN WI
1100 AM CDT WED AUG 23 2017

NOTE: "FAIR" INDICATES FEW OR NO CLOUDS BELOW 12,000 FEET WITH NO
SIGNIFICANT WEATHER AND/OR OBSTRUCTIONS TO VISIBILITY.

WIZ001-002-006>008-014>016-023>028-231700-
NORTHWEST WISCONSIN

CITY           SKY/WX    TMP DP  RH WIND       PRES   REMARKS
SUPERIOR ARPT    N/A     63  53  70 W6        30.09S
ASHLAND        PTSUNNY   65  51  60 N9        30.09R
HAYWARD        PTSUNNY   61  50  67 N8        30.09S
SIREN          PTSUNNY   62  51  65 N5        30.11S
CUMBERLAND     MOSUNNY   61  50  67 NW9       30.10S
RICE LAKE      MOSUNNY   63  52  67 N6        30.11F
CHETEK         PTSUNNY   63  54  73 N9        30.10S
LADYSMITH      PTSUNNY   63  51  66 NW10G16   30.10S
EAU CLAIRE     NOT AVBL
MENOMONIE      SUNNY     66  53  62 NW13      30.10S
NEW RICHMOND   SUNNY     65  50  58 NW9G20    30.11S
OSCEOLA        SUNNY     64  51  63 N8        30.14S
$$

WIZ003>005-009-010-017-018-231700-
NORTH CENTRAL WISCONSIN

CITY           SKY/WX    TMP DP  RH WIND       PRES   REMARKS
MANITOWISH WTR PTSUNNY   59  53  81 NW13      30.06R
ARBOR VITAE    MOSUNNY   62  51  69 NW7       30.05S
WOODRUFF       MOSUNNY   62  51  69 NW7       30.05S
RHINELANDER    PTSUNNY   60  50  69 NW9       30.06R
EAGLE RIVER    CLOUDY    60  48  64 NW10G18   30.04S
LAND O LAKES   CLOUDY    59  50  72 NW9       30.06R
PHILLIPS       CLOUDY    60  52  75 NW5       30.07S
TOMAHAWK         N/A     61  50  66 NW9       30.07R
MEDFORD        PTSUNNY   61  51  69 NW12      30.07S
MERRILL        NOT AVBL
$$

WIZ029-030-035-036-043>047-231700-
CENTRAL WISCONSIN

CITY           SKY/WX    TMP DP  RH WIND       PRES   REMARKS
WAUSAU         PTSUNNY   62  51  67 NW7       30.04S
MOSINEE        PTSUNNY   63  54  72 NW12G18   30.07S
MARSHFIELD     MOSUNNY   66  50  56 NW14      30.06S
STEVENS POINT  PTSUNNY   62  51  66 W8        30.06R
WAUPACA        MOSUNNY   69  52  55 W8G18     30.03S
WAUTOMA        PTSUNNY   68  51  54 NW16      30.05S
WISC RAPIDS    MOSUNNY   68  52  56 N14       30.07S
CAMP DOUGLAS   NOT AVBL
$$

WIZ011>013-019>022-031-037>040-048>050-231700-
NORTHEAST WISCONSIN

CITY           SKY/WX    TMP DP  RH WIND       PRES   REMARKS
ANTIGO         MOSUNNY   61  51  69 N13       30.04S
SHAWANO        CLOUDY    65  53  66 W5        30.02F
OCONTO         MOSUNNY   65  50  58 N9        30.00F
STURGEON BAY   MOSUNNY   63  53  70 NW7       30.02R
GREEN BAY      MOSUNNY   67  57  70 NW12      30.02R
MANITOWOC      NOT AVBL
APPLETON       PTSUNNY   64  48  55 NW9G17    30.02S
CLINTONVILLE   MOSUNNY   64  50  59 N12       30.03S
OSHKOSH        MOSUNNY   67  53  61 NW10      30.03S
$$

WIZ032>034-041-042-053>061-231700-
SOUTHWEST WISCONSIN

CITY           SKY/WX    TMP DP  RH WIND       PRES   REMARKS
LA CROSSE      SUNNY     71  54  54 W7        30.08S
SPARTA         SUNNY     67  51  57 N12       30.09S
VIROQUA        SUNNY     66  56  70 NW8       30.09S
BOSCOBEL       SUNNY     72  53  51 NW8       30.09R
PRAIRIE DU CHI SUNNY     69  51  53 W5        30.10R
PLATTEVILLE    SUNNY     67  57  69 NW8       30.11R
$$

WIZ056-057-062-063-064-067-068-231700-
SOUTH CENTRAL WISCONSIN

CITY           SKY/WX    TMP DP  RH WIND       PRES   REMARKS
REEDSBURG      SUNNY     68  53  59 NW13G18   30.06F
BARABOO/DELLS  SUNNY     67  48  50 NW13G18   30.07S
LONE ROCK      MOSUNNY   71  56  58 NW9       30.07S
MINERAL POINT  SUNNY     70  55  60 N9        30.09S
MADISON        MOSUNNY   68  52  56 N13       30.06R
MIDDLETON      MOSUNNY   69  53  58 NW15      30.07S
WATERTOWN      SUNNY     66  55  66 NW10G18   30.05R
MONROE         SUNNY     68  52  56 NW12      30.08R
JANESVILLE     SUNNY     68  55  64 W8        30.05
$$

WIZ051-052-058>065-066-070>072-231700-
SOUTHEAST WISCONSIN

CITY           SKY/WX    TMP DP  RH WIND       PRES   REMARKS
MILWAUKEE      MOSUNNY   71  51  49 NW10      30.03R
WAUKESHA       MOSUNNY   66  52  59 NW9       30.05S
MILWAUKEE/TIMM PTSUNNY   68  50  52 NW12      30.04R
RACINE         SUNNY     71  52  50 NW14      30.05R
KENOSHA        MOSUNNY   70  53  54 NW12      30.04S
FOND DU LAC    MOSUNNY   68  51  54 NW10      30.04S
SHEBOYGAN      SUNNY     68  54  60 NW8       30.02S
WEST BEND      MOSUNNY   64  52  63 NW10G21   30.03S
JUNEAU         MOSUNNY   64  53  68 W8        30.06S
$$

LSZ147-162-231700-
LAKE SUPERIOR

STATION/POSITION TIME  TEMP    WIND        PRES    WAVE
                       AIR SEA DIR/SP/G            HT/PER
                 (UTC) (F)     (DEG/KT/KT) (MB)    (FT/S)
W MID LAKE BUOY  1450   57 59  320/ 12/ 16 1017.4R   2/ 4
DEVILS ISLAND    1500   58      10/ 10/ 12 1018.6R
SAXON HARBOR     1540   61     350/ 12/ 18 1017.9R
$$

LMZ867-665-643>646-231700-
LAKE MICHIGAN

STATION/POSITION TIME  TEMP    WIND        PRES    WAVE
                       AIR SEA DIR/SP/G            HT/PER
                 (UTC) (F)     (DEG/KT/KT) (MB)    (FT/S)
S GREEN BAY BUOY 1530   63 70  340/ 10/ 12 1016.0R
N MID LAKE BUOY  1450   59 66  310/ 16/ 19 1015.1R   3/ 4
NORTHPORT PIER   1540   63     320/ 12/ 18 1015.2S
KEWAUNEE LAKESHO 1530   65     330/  9/ 12 1015.2R
SHEBOYGAN LAKESH 1500   63     340/  8/ 10 1016.3R
PORT WASHINGTON  1530   68     350/  6/ 12 1017.3S
ATWATER BUOY     1439   65 68  310/  8/ 12 1016.8R
MILWAUKEE LAKESH 1540   67     340/ 13/ 18   N/A
S MID LAKE BUOY  1450   65 71  340/ 14/ 16 1016.3R   4/ 5
KENOSHA   LAKESH 1500   66     300/  9/ 16 1016.9
$$

TC  - TEMPERATURE IN CELSIUS
VSB - VISIBILITY IN STATUTE MILES
WCI - WIND CHILL INDEX
HX  - HEAT INDEX





USA.gov is the U.S. government's official web portal to all federal, state and local government web resources and services.